Location: Cactus School
(34.5700°N, 118.0931°W)
Time: 23:36:03
(UTC-08:00)

A-11 Canister half - Pass Details

Date: 20 November 2019
Orbit: 1515 x 1684 km, 47.2° (Epoch: 15 December)

Event Time Altitude Azimuth Distance (km) Brightness Sun altitude
Rises 21:41:03 0° 300° (WNW) 4,938 12.1 -60.3°
Reaches altitude 10° 21:44:24 10° 306° (NW) 3,951 11.4 -60.9°
Enters shadow 21:46:11 16° 310° (NW) 3,451 11.0 -61.2°
